STARLINK-4766 (53840 NORAD) Tracking and Keplerian Element Data

This shows tracking and keplerian element data for the satellite.

Feedback or suggestion? Click here.




ElementValue
Catalog53840
NameSTARLINK-4766
Epoch Orbit1053
Epoch Day325.33334491
Epoch Year2022
RAAN305.6468
Inclination53.2173
Eccentricity0.0001033
Argument of Perigee84.4314
Mean Anonmoly299.2933
Mean Motion15.66222819
Decay Rate-0.01140083
L11 53840U 22114Y 22325.33334491 -.01140083 00000+0 -11983-1 0 9995
L22 53840 53.2173 305.6468 0001033 84.4314 299.2933 15.66222819 10534



Live tracking and technical data element details for STARLINK-4766 (NORAD 53840). STARLINK-4766 can be tracked NOW for your location showing map with azimuth and elevation plus other details from your city location.







IsCatalogInMostPopularTable: catalog: 53840, numindb: 1
Update: records affected: 1



GetName: 53840 STARLINK-4766

Hit Count: updated at: Thu, 08 Dec 2022 08:45:34 GMT